Waarnemingen

Advertentie
Mijn weer
Kvarn, Zweden (2561): temperatuur & dauwpunt: 18.02.2018 22:00:00 - 24.02.2018 22:00:00 (CET)Kvarn, Zweden (2561): windsnelheid & windstoten: 18.02.2018 22:00:00 - 24.02.2018 22:00:00 (CET)Kvarn, Zweden (2561): windrichting: 18.02.2018 22:00:00 - 24.02.2018 22:00:00 (CET)Kvarn, Zweden (2561): luchtdruk: 18.02.2018 22:00:00 - 24.02.2018 22:00:00 (CET)Kvarn, Zweden (2561): zicht: 18.02.2018 22:00:00 - 24.02.2018 22:00:00 (CET)Kvarn, Zweden (2561): neerslag: 18.02.2018 22:00:00 - 24.02.2018 22:00:00 (CET)
Datum & Tijd tt [°C] td [°C] ff [km/u] ff [kn] fx [km/u] fx [kn] dd ppp [hPa] vv [km] rr [mm]
24.02.2018 22:00:00 -10,7 -11,1 0 0 0 0 N 1039,3 50 0,0
24.02.2018 21:00:00 -11,5 -11,8 0 0 0 0 N 1039,2 50 0,0
24.02.2018 20:00:00 -10,8 -11,4 0 0 0 0 N 1039,1 45 0,0
24.02.2018 19:00:00 -9,4 -10,5 0 0 0 0 N 1039,1 50 0,0
24.02.2018 18:00:00 -8,2 -10,4 0 0 4 2 N 1039,1 50 0,0
24.02.2018 17:00:00 -6,3 -10,3 4 2 11 6 N 1038,9 45 0,0
24.02.2018 16:00:00 -5,0 -10,6 4 2 14 8 N 1039,2 45 0,0
24.02.2018 15:00:00 -3,9 -10,9 4 2 14 8 NNO - 45 0,0
24.02.2018 14:00:00 -4,2 -11,7 7 4 14 8 N 1039,1 45 0,0
24.02.2018 13:00:00 -4,2 -11,4 4 2 22 12 NO 1039,4 45 0,0
24.02.2018 12:00:00 -4,8 -10,6 7 4 22 12 ONO 1039,7 45 0,0
24.02.2018 11:00:00 -5,6 -10,0 7 4 18 10 O 1039,7 40 0,0
24.02.2018 10:00:00 -7,0 -8,9 4 2 11 6 NO 1039,7 45 0,0
24.02.2018 09:00:00 -8,9 -9,3 4 2 11 6 N 1039,6 40 0,0
24.02.2018 08:00:00 -9,7 -10,0 4 2 11 6 N 1039,5 17 0,0
24.02.2018 07:00:00 -9,6 -9,9 7 4 11 6 N 1039,2 24 0,0
24.02.2018 06:00:00 -8,9 -9,2 7 4 14 8 NNO 1038,7 35 0,0
24.02.2018 05:00:00 -8,8 -9,1 4 2 11 6 NNO 1038,0 35 0,0
24.02.2018 04:00:00 -10,0 -10,1 0 0 7 4 N 1037,3 45 0,0
24.02.2018 03:00:00 -10,3 -10,4 4 2 7 4 N 1036,8 45 0,0
24.02.2018 02:00:00 -9,6 -9,9 4 2 7 4 NNO 1036,3 45 0,0
24.02.2018 01:00:00 -8,5 -9,2 4 2 11 6 NO 1036,0 50 0,0
24.02.2018 00:00:00 -6,1 -8,1 4 2 14 8 NNO 1035,4 50 0,0
23.02.2018 23:00:00 -4,7 -6,4 4 2 7 4 NO 1034,4 45 0,0
23.02.2018 22:00:00 -4,6 -6,4 4 2 11 6 NNO 1034,1 45 0,0
23.02.2018 21:00:00 -4,7 -6,5 4 2 11 6 NNO 1033,0 50 0,0
23.02.2018 20:00:00 -4,4 -6,2 4 2 14 8 N 1032,5 50 0,0
23.02.2018 19:00:00 -4,1 -6,7 4 2 14 8 N 1031,8 50 0,0
23.02.2018 18:00:00 -3,7 -7,0 7 4 18 10 N 1031,3 50 0,0
23.02.2018 17:00:00 -3,3 -6,4 7 4 18 10 N 1030,7 50 0,0
23.02.2018 16:00:00 -2,6 -5,1 7 4 18 10 N 1029,9 21 0,0
23.02.2018 15:00:00 -2,3 -5,3 7 4 22 12 N - 45 0,0
23.02.2018 14:00:00 -1,7 -5,2 7 4 18 10 N 1029,1 45 0,0
23.02.2018 13:00:00 -1,9 -4,1 7 4 14 8 N 1028,6 40 0,0
23.02.2018 12:00:00 -2,5 -3,8 7 4 14 8 N 1028,5 35 0,0
23.02.2018 11:00:00 -2,6 -3,7 7 4 18 10 N 1028,0 35 0,0
23.02.2018 10:00:00 -2,5 -3,2 7 4 14 8 NNW 1027,3 5 0,0
23.02.2018 09:00:00 -2,9 -3,0 7 4 14 8 NW 1027,1 3,9 0,1
23.02.2018 08:00:00 -2,9 -3,3 11 6 18 10 NNW 1026,8 7 0,1
23.02.2018 07:00:00 -2,8 -3,1 7 4 14 8 NNW 1026,6 28 0,0
23.02.2018 06:00:00 -2,8 -3,1 7 4 11 6 WNW 1026,3 26 0,0
23.02.2018 05:00:00 -3,0 -3,1 0 0 7 4 N 1026,3 17 0,0
23.02.2018 04:00:00 -3,1 -3,2 4 2 18 10 WNW 1026,3 21 0,0
23.02.2018 03:00:00 -3,2 -3,3 7 4 18 10 W 1026,8 21 0,0
23.02.2018 02:00:00 -3,3 -3,6 7 4 14 8 W 1026,9 22 0,0
23.02.2018 01:00:00 -3,2 -3,6 7 4 14 8 W 1027,1 29 0,0
23.02.2018 00:00:00 -3,2 -3,6 4 2 14 8 WZW 1027,5 30 0,0
22.02.2018 23:00:00 -3,2 -3,6 7 4 14 8 ZW 1027,8 30 0,0
22.02.2018 22:00:00 -3,2 -3,6 4 2 11 6 WZW 1028,1 25 0,0
22.02.2018 21:00:00 -3,3 -3,8 4 2 7 4 WZW 1028,4 25 0,0
22.02.2018 20:00:00 -3,2 -3,9 4 2 7 4 ZW 1028,5 25 0,0
22.02.2018 19:00:00 -3,2 -3,9 4 2 7 4 ZW 1028,6 29 0,0
22.02.2018 18:00:00 -3,1 -4,1 0 0 7 4 N 1028,8 45 0,0
22.02.2018 17:00:00 -2,8 -4,5 0 0 7 4 N 1028,9 50 0,0
22.02.2018 16:00:00 -2,5 -4,5 4 2 11 6 ZW 1028,9 35 0,0
22.02.2018 15:00:00 -2,6 -4,6 4 2 14 8 WZW 1029,3 30 0,0
22.02.2018 14:00:00 -2,4 -4,6 4 2 11 6 ZW 1029,7 28 0,0
22.02.2018 13:00:00 -2,8 -5,0 4 2 11 6 WZW 1030,2 29 0,0
22.02.2018 12:00:00 -3,5 -5,7 4 2 7 4 ZZW 1030,2 35 0,0
22.02.2018 11:00:00 -4,8 -6,0 0 0 4 2 N 1030,6 24 0,0
22.02.2018 10:00:00 -6,3 -7,0 4 2 4 2 ZZW 1030,6 25 0,0
22.02.2018 09:00:00 -7,3 -7,7 0 0 4 2 N 1030,6 27 0,0
22.02.2018 08:00:00 -8,4 -8,8 0 0 0 0 N 1030,5 30 0,0
22.02.2018 07:00:00 - - - - - - - - - -
22.02.2018 06:00:00 -9,1 -9,5 0 0 4 2 N 1030,2 30 0,0
22.02.2018 05:00:00 -9,4 -9,8 0 0 4 2 N 1030,2 29 0,0
22.02.2018 04:00:00 -9,8 -10,1 0 0 4 2 N 1030,3 28 0,0
22.02.2018 03:00:00 -10,0 -10,4 0 0 4 2 N 1030,2 28 0,0
22.02.2018 02:00:00 -10,7 -11,2 0 0 4 2 N 1030,2 28 0,0
22.02.2018 01:00:00 -11,0 -11,5 0 0 0 0 N 1030,2 30 0,0
22.02.2018 00:00:00 -10,9 -11,4 0 0 0 0 N 1030,2 35 0,0
21.02.2018 23:00:00 -11,2 -11,7 0 0 0 0 N 1030,0 35 0,0
21.02.2018 22:00:00 -11,4 -11,9 0 0 4 2 N 1030,0 30 0,0
21.02.2018 21:00:00 -12,4 -12,9 0 0 4 2 N 1029,5 35 0,0
21.02.2018 20:00:00 -12,2 -12,5 0 0 0 0 N 1029,1 16 0,0
21.02.2018 19:00:00 -10,6 -10,9 0 0 4 2 N 1028,6 19 0,0
21.02.2018 18:00:00 -8,8 -9,1 0 0 4 2 N 1028,2 16 0,0
21.02.2018 17:00:00 -6,4 -7,3 0 0 4 2 N 1027,9 27 0,0
21.02.2018 16:00:00 -4,1 -7,5 0 0 7 4 N 1027,5 40 0,0
21.02.2018 15:00:00 -3,6 -7,7 4 2 7 4 N 1027,4 40 0,0
21.02.2018 14:00:00 -3,5 -7,5 4 2 7 4 N 1027,5 35 0,0
21.02.2018 13:00:00 -4,5 -7,9 4 2 7 4 N 1027,6 35 0,0
21.02.2018 12:00:00 -4,2 -7,3 0 0 11 6 N 1027,4 29 0,0
21.02.2018 11:00:00 -5,0 -7,4 4 2 11 6 O 1027,7 29 0,0
21.02.2018 10:00:00 -5,6 -7,3 0 0 7 4 N 1027,7 18 0,0
21.02.2018 09:00:00 -6,7 -7,4 4 2 7 4 N 1027,7 24 0,0
21.02.2018 08:00:00 -7,6 -7,9 0 0 4 2 N 1027,3 12 0,0
21.02.2018 07:00:00 -7,7 -8,0 0 0 4 2 N 1027,1 11 0,0
21.02.2018 06:00:00 -8,0 -8,2 0 0 4 2 N 1026,9 15 0,1
21.02.2018 05:00:00 -7,9 -8,2 0 0 0 0 N 1027,4 16 0,0
21.02.2018 04:00:00 -7,9 -8,2 0 0 4 2 N 1027,5 17 0,0
21.02.2018 03:00:00 -7,8 -8,1 0 0 4 2 N 1027,9 18 0,0
21.02.2018 02:00:00 -7,6 -8,1 0 0 4 2 N 1028,1 19 0,0
21.02.2018 01:00:00 -7,6 -8,1 0 0 4 2 N 1028,4 21 0,0
21.02.2018 00:00:00 -7,0 -8,1 0 0 7 4 N 1028,5 28 0,0
20.02.2018 23:00:00 -6,1 -7,2 4 2 4 2 NW 1028,7 30 0,0
20.02.2018 22:00:00 -5,7 -6,5 0 0 4 2 N 1028,4 27 0,0
20.02.2018 21:00:00 -5,4 -6,4 0 0 4 2 N 1028,4 18 0,0
20.02.2018 20:00:00 -5,1 -6,1 0 0 4 2 N 1028,5 19 0,0
20.02.2018 19:00:00 -5,0 -5,7 0 0 4 2 N 1028,5 24 0,0
20.02.2018 18:00:00 -4,7 -5,7 0 0 7 4 N 1028,4 19 0,0
20.02.2018 17:00:00 -4,4 -6,1 0 0 4 2 N 1028,1 30 0,0
20.02.2018 16:00:00 -4,0 -6,5 0 0 7 4 N 1028,3 35 0,0
20.02.2018 15:00:00 -3,6 -6,5 0 0 7 4 N 1028,3 40 0,0
20.02.2018 14:00:00 -3,6 -6,5 0 0 7 4 N 1028,4 40 0,0
20.02.2018 13:00:00 -3,8 -7,1 4 2 11 6 NO 1028,7 45 0,0
20.02.2018 12:00:00 -4,2 -7,0 4 2 11 6 N 1028,9 30 0,0
20.02.2018 11:00:00 -4,0 -6,6 4 2 7 4 NO 1029,0 23 0,0
20.02.2018 10:00:00 -4,7 -6,5 4 2 11 6 NNO 1029,0 22 0,0
20.02.2018 09:00:00 -5,0 -5,8 4 2 7 4 NO 1028,9 15 0,0
20.02.2018 08:00:00 -5,3 -5,7 4 2 7 4 N 1028,7 14 0,0
20.02.2018 07:00:00 -5,4 -5,8 4 2 7 4 NO 1028,5 17 0,0
20.02.2018 06:00:00 -5,3 -5,8 0 0 7 4 N 1028,5 15 0,0
20.02.2018 05:00:00 -5,2 -5,7 0 0 7 4 N 1028,5 17 0,0
20.02.2018 04:00:00 -5,1 -5,6 0 0 7 4 N 1028,5 19 0,0
20.02.2018 03:00:00 -5,0 -5,5 4 2 7 4 NNO 1028,8 18 0,0
20.02.2018 02:00:00 -4,9 -5,4 4 2 7 4 NNO 1028,7 12 0,0
20.02.2018 01:00:00 -4,8 -5,3 4 2 7 4 NNO 1028,7 13 0,1
20.02.2018 00:00:00 -4,6 -5,4 4 2 11 6 NNO 1028,8 17 0,0
19.02.2018 23:00:00 -4,5 -5,3 4 2 14 8 NO 1028,1 16 0,0
19.02.2018 22:00:00 -4,3 -5,1 4 2 18 10 NO 1027,8 13 0,0
19.02.2018 21:00:00 -4,1 -4,9 4 2 18 10 NO 1027,9 13 0,0
19.02.2018 20:00:00 -3,8 -4,6 7 4 18 10 NNO 1027,7 15 0,0
19.02.2018 19:00:00 -3,3 -3,8 4 2 18 10 NNO 1027,2 14 0,0
19.02.2018 18:00:00 -2,7 -3,0 7 4 18 10 NO 1026,6 11 0,0
19.02.2018 17:00:00 -2,1 -2,4 7 4 18 10 NO 1026,0 12 0,0
19.02.2018 16:00:00 -1,7 -1,8 7 4 18 10 NO 1025,3 11 0,0
19.02.2018 15:00:00 -1,0 -1,3 7 4 18 10 NO 1024,6 15 0,0
19.02.2018 14:00:00 -0,5 -0,6 7 4 18 10 NO 1024,0 16 0,0
19.02.2018 13:00:00 -0,1 -0,1 4 2 18 10 ONO 1023,6 27 0,0
19.02.2018 12:00:00 0,3 0,3 4 2 18 10 NO 1023,3 13 0,0
19.02.2018 11:00:00 0,0 0,0 4 2 11 6 ONO 1022,9 8 0,1
19.02.2018 10:00:00 -0,3 -0,3 4 2 11 6 NO 1022,5 1,9 0,2
19.02.2018 09:00:00 -0,8 -0,8 4 2 11 6 ONO 1022,1 0,8 0,9
19.02.2018 08:00:00 -1,2 -1,2 4 2 7 4 ONO 1021,4 0,5 0,9
19.02.2018 07:00:00 -1,3 -1,3 4 2 7 4 ONO 1020,9 3,3 0,2
19.02.2018 06:00:00 -1,0 -1,0 4 2 7 4 ONO 1020,5 2,1 0,3
19.02.2018 05:00:00 -0,5 -0,5 4 2 7 4 O 1020,3 2,4 0,4
19.02.2018 04:00:00 -0,5 -0,5 4 2 7 4 O 1020,3 1,2 0,3
19.02.2018 03:00:00 -0,5 -0,5 0 0 7 4 N 1020,5 4,8 0,1
19.02.2018 02:00:00 -0,5 -0,5 4 2 4 2 OZO 1020,7 2,2 0,2
19.02.2018 01:00:00 -0,4 -0,4 0 0 7 4 N 1021,0 2,7 0,2
19.02.2018 00:00:00 -0,3 -0,3 4 2 7 4 OZO 1021,2 7 0,0
18.02.2018 23:00:00 -0,4 -0,4 4 2 7 4 ZZO 1021,4 4,9 0,1
18.02.2018 22:00:00 -0,6 -0,6 0 0 7 4 N 1021,7 4,4 0,1

tt = temperatuur
td = dauwpunt
ff = windsnelheid
fx = windstoten
dd = windrichting
ppp = luchtdruk
vv = zicht
rr = neerslag

Weerstations in de omgeving